{"data":{"norad_id":53724,"epoch":"2026-05-24T18:44:21.329952Z","epoch_age_seconds":104662,"freshness":"FRESH","line1":"1 53724U 22107AA  26144.78080243  .00000238  00000+0  33041-4 0  9999","line2":"2 53724  53.2148 272.3313 0001298  79.1106 281.0032 15.08836617205908","mean_motion":15.08836617,"eccentricity":0.0001298,"inclination_deg":53.2148,"raan_deg":272.3313,"arg_perigee_deg":79.1106,"mean_anomaly_deg":281.0032,"bstar":3.3041e-5,"rev_number":20590,"period_min":95.437768660674,"perigee_km":538.85578724435,"apogee_km":540.65167167772,"semimajor_km":6917.890729461,"source":"CELESTRAK","updated_at":"2026-05-25T13:38:17.535947Z"}}